Theta_e
335 337 337 336 335 334 332 331 329 329 331 328 328 328 329 330 332 333 331 333 331 331 331 329 325 329 336 338 337 341 340 340 339 336 335 331 333 333 334 333 334 334 335
336 337 336 335 334 332 331 332 332 331 330 330 330 330 329 330 329 332 333 332 330 329 330 329 327 332 335 339 336 338 342 340 339 336 333 333 334 334 333 333 334 336 334
336 337 336 336 335 333 331 331 332 332 331 329 330 329 329 329 329 332 330 333 331 330 328 326 321 325 335 338 337 336 340 341 339 334 335 333 333 333 332 333 336 334 332
337 337 337 335 333 335 333 331 331 332 331 331 330 329 328 329 329 330 330 332 331 332 328 321 316 318 329 337 340 340 340 342 340 338 334 334 333 331 332 333 334 332 325
337 337 336 334 336 334 332 332 333 330 331 330 329 328 327 329 329 330 331 330 329 331 331 330 318 320 324 325 339 342 343 341 341 337 333 332 331 332 331 333 332 325 316
336 335 335 335 335 334 333 332 332 330 331 329 329 329 330 330 331 330 330 329 331 327 328 333 333 326 325 323 332 340 342 340 339 335 332 332 331 330 331 332 323 324 325
335 335 334 335 334 334 332 332 331 329 328 329 328 329 330 329 330 330 330 329 329 328 328 331 332 328 324 325 329 336 341 339 339 335 333 331 329 329 331 325 324 325 325
334 334 335 334 334 333 332 331 330 330 329 329 329 329 331 331 329 330 329 330 329 329 330 330 333 334 334 324 329 335 340 339 337 334 332 329 327 329 327 324 325 325 322
333 332 335 333 333 331 332 330 329 329 330 330 328 329 331 332 329 329 331 330 330 330 333 333 332 333 335 330 329 332 339 339 337 334 329 327 330 327 323 323 324 321 318
334 333 331 331 332 332 332 331 330 329 329 330 329 329 328 329 331 331 330 330 331 330 330 332 332 333 335 335 338 337 338 338 337 333 328 330 327 327 325 324 319 316 320
334 334 333 333 332 332 331 330 330 329 329 329 330 330 330 327 329 329 330 331 330 330 331 331 332 333 334 334 338 339 337 327 332 329 329 326 325 323 318 317 317 320 323
336 334 333 331 331 331 332 331 330 329 329 328 329 329 331 330 330 328 324 331 332 332 333 333 333 334 336 335 337 333 329 328 332 330 325 321 320 321 320 322 320 324 324
335 334 331 330 331 332 332 331 330 329 329 329 329 329 330 329 329 329 328 333 333 331 332 333 334 336 336 335 335 333 332 330 329 325 320 320 323 320 319 319 325 324 323
333 330 332 333 333 333 333 332 331 331 331 329 328 329 330 330 330 331 331 332 331 332 330 328 331 333 333 334 334 333 331 328 325 321 321 324 323 317 321 322 322 322 323
331 332 333 333 333 333 333 332 331 331 333 330 330 330 330 331 331 331 330 332 331 332 329 326 327 332 332 332 332 329 327 325 322 323 325 323 318 320 322 321 321 322 310
331 332 333 334 333 332 333 330 329 331 334 332 329 327 329 330 330 330 331 331 330 329 328 326 325 329 330 326 324 324 323 324 325 324 321 318 318 318 322 319 317 319 321
329 330 332 333 333 332 332 332 333 332 329 326 326 327 329 328 331 330 329 330 329 326 325 324 325 326 325 323 323 323 324 324 324 320 319 318 320 318 315 313 314 319 318
329 329 330 330 332 332 331 332 331 331 327 325 326 328 327 330 330 328 328 328 326 325 324 324 324 325 325 324 324 323 323 323 323 321 321 318 317 320 321 319 314 317 316
328 329 329 330 332 330 330 331 331 332 331 329 325 328 327 328 329 329 328 327 325 325 324 324 324 324 323 323 323 323 322 322 319 318 318 319 320 318 319 318 317 316 315
328 329 331 332 332 331 330 331 331 331 331 330 328 327 327 329 329 328 327 327 325 324 324 324 323 323 322 322 321 321 320 317 321 321 322 320 319 319 318 317 315 313 312
330 330 330 331 331 331 330 332 332 332 331 331 328 329 329 330 329 328 326 324 324 325 325 324 323 322 321 322 320 319 320 320 319 320 319 319 318 316 314 312 309 306 305
330 330 331 330 331 329 329 330 333 332 330 330 328 329 329 329 328 328 326 325 325 325 325 324 323 323 323 320 319 319 320 320 318 315 314 311 310 307 306 305 305 304 301
330 330 331 332 329 326 328 330 332 332 331 328 329 330 329 328 328 327 326 326 325 325 325 324 324 323 321 319 318 319 321 321 319 317 314 312 311 309 307 304 302 299 296
330 330 332 332 331 325 327 330 333 331 331 329 331 330 328 328 328 327 326 326 325 325 325 324 324 322 321 321 319 316 324 324 321 318 315 312 310 304 303 302 299 297 295
331 332 332 332 331 326 327 331 332 331 331 332 330 330 329 328 328 327 326 326 326 325 325 324 324 323 321 319 318 324 323 320 319 317 316 312 308 305 303 299 298 294 292
334 332 332 331 330 327 327 330 332 331 331 331 331 330 328 328 327 328 326 326 325 325 325 324 324 321 320 319 322 325 322 321 321 320 318 316 310 308 306 304 299 294 292
Wind_Speed
17 16 16 12 11 6 9 13 15 14 11 14 14 17 17 16 14 15 7 18 17 14 12 11 13 13 12 11 14 18 21 24 28 26 25 25 21 19 19 18 18 18 21
17 14 14 15 15 17 17 12 11 12 13 12 14 15 16 15 20 12 8 15 17 15 12 13 15 15 14 12 14 17 22 24 27 28 25 24 22 22 19 18 20 19 16
18 13 14 11 13 15 18 16 15 13 15 15 19 17 14 15 18 16 13 11 12 11 11 16 18 16 16 14 15 17 21 25 25 30 28 25 24 22 21 21 20 17 16
15 13 14 15 15 14 14 17 17 16 14 15 15 14 12 15 17 15 14 15 14 12 18 16 19 18 18 17 16 17 22 26 26 33 30 27 26 24 24 20 19 17 15
16 16 16 16 14 15 16 16 15 16 14 16 15 8 14 11 12 16 15 22 19 14 19 16 18 20 20 20 19 19 24 27 32 34 32 28 27 25 23 22 20 17 18
15 15 15 17 15 14 14 16 16 15 14 15 14 8 10 11 12 13 19 15 15 21 14 13 18 18 22 22 20 20 27 29 36 35 33 30 28 25 24 20 20 21 20
11 10 16 14 16 16 18 16 15 15 15 10 6 7 9 12 17 14 18 18 20 20 17 15 17 20 23 24 23 22 28 32 35 35 33 32 31 26 23 21 23 21 19
12 14 12 11 12 14 18 16 15 14 14 12 7 5 2 7 15 18 21 21 22 21 24 19 18 17 22 26 25 24 28 34 36 37 36 35 29 26 23 24 24 20 18
11 11 11 11 14 14 17 13 13 14 11 11 15 6 3 4 4 15 21 20 20 15 15 13 17 14 10 19 24 25 29 37 37 37 38 33 31 27 27 26 21 19 16
5 4 7 10 10 8 8 9 10 15 13 10 10 21 19 7 3 3 11 16 8 16 15 14 17 15 12 17 20 24 30 42 40 37 38 35 31 27 25 22 19 15 15
2 5 8 7 7 8 8 9 9 11 13 14 16 11 18 21 14 3 4 4 6 7 9 12 15 15 16 17 18 24 41 23 30 40 39 39 32 25 24 20 18 16 14
5 6 7 7 5 6 6 7 8 9 11 13 13 15 13 6 4 6 5 3 6 3 3 3 4 9 17 21 26 32 23 40 43 42 41 38 34 28 25 18 16 15 13
4 5 4 3 2 4 5 5 6 7 9 9 11 12 11 11 8 18 23 5 3 4 5 6 7 9 15 22 27 36 45 49 45 44 40 39 33 28 24 18 16 13 12
4 5 3 2 3 4 5 5 5 5 5 5 6 7 8 7 3 1 7 9 3 3 6 5 9 11 12 23 39 45 46 46 47 45 38 35 31 26 22 18 15 13 11
8 7 3 1 1 2 3 3 5 5 1 2 4 4 2 2 2 4 13 20 8 4 2 5 3 14 15 28 44 50 49 49 46 41 37 33 29 24 21 18 16 12 9
9 8 4 2 1 1 1 2 3 3 3 4 5 6 7 7 8 4 11 19 13 15 4 3 5 17 31 38 41 51 51 46 43 38 34 30 27 24 20 17 15 12 11
6 5 4 3 3 3 2 4 4 5 1 3 4 5 7 10 12 13 11 14 21 24 12 12 19 27 35 37 35 46 44 45 36 31 31 29 26 23 18 16 15 13 10
7 4 6 5 5 5 1 2 2 2 5 2 3 4 5 8 12 16 18 22 27 25 27 20 25 24 31 43 43 44 36 35 35 32 29 26 22 20 20 18 15 11 8
7 6 6 7 7 6 3 2 2 2 4 6 5 1 4 7 15 17 21 25 30 27 29 29 23 27 38 42 41 40 38 39 32 27 24 23 22 19 17 14 11 9 6
7 4 12 8 6 6 5 4 2 2 4 7 7 5 8 13 18 20 22 23 31 30 29 26 28 26 32 34 35 33 29 30 27 25 23 21 19 15 13 11 8 7 10
4 13 10 8 7 8 6 7 5 3 10 13 10 9 13 16 19 24 29 32 37 29 28 26 26 27 28 26 27 27 29 27 22 22 23 20 18 15 12 12 14 14 11
10 13 11 8 11 8 7 9 10 10 16 16 16 17 19 18 20 24 32 31 33 33 29 28 27 23 21 28 33 29 29 23 10 21 25 18 19 19 17 16 14 11 8
8 10 10 10 8 8 8 9 10 11 17 18 20 19 21 21 26 33 34 32 28 27 31 35 28 28 30 33 35 29 22 19 17 25 25 22 18 17 14 16 13 9 5
10 12 11 11 8 7 8 8 10 14 17 17 16 18 21 23 28 33 34 32 30 30 30 30 34 34 37 35 33 33 23 23 24 25 22 10 14 13 14 12 10 8 4
11 9 10 11 7 7 7 8 11 14 17 16 17 21 22 28 27 31 33 30 29 27 30 33 34 34 34 32 29 22 23 25 18 20 17 11 14 13 10 11 9 7 5
10 11 12 10 8 6 10 9 13 19 20 19 20 22 21 25 26 32 35 34 28 32 30 29 29 27 26 28 25 17 25 21 20 11 19 10 21 11 6 9 10 8 8
Wind_Direction
219 227 232 241 241 272 231 251 259 253 252 271 268 262 264 266 259 243 280 219 212 218 217 227 218 208 210 218 211 209 206 201 198 191 187 184 186 184 185 179 178 165 151
220 226 239 245 240 250 256 268 255 250 252 261 260 251 256 266 255 252 221 218 215 217 229 231 211 207 210 216 210 209 205 203 200 193 188 186 187 183 177 171 165 154 151
215 222 239 251 244 247 246 253 256 248 256 249 260 244 240 247 248 245 241 221 219 232 245 234 212 209 208 208 211 207 207 205 200 191 189 186 187 177 167 165 154 152 151
213 228 240 248 254 242 254 250 249 250 248 253 260 250 248 245 243 247 242 219 227 239 229 227 218 213 209 204 207 204 204 200 199 190 186 184 181 174 168 166 159 157 146
221 231 239 252 261 262 255 242 241 246 251 251 259 255 248 242 242 236 229 226 218 239 228 225 214 214 212 204 203 202 197 196 190 186 185 181 179 173 164 160 160 156 152
221 239 242 254 255 258 252 240 236 241 246 250 252 242 235 239 232 218 225 227 228 236 238 231 218 213 213 205 202 201 194 193 189 187 186 181 174 168 167 165 156 148 147
234 253 263 256 263 257 249 240 244 245 250 241 240 245 248 242 237 230 223 227 218 223 220 228 205 209 211 205 201 199 194 189 188 185 180 176 172 172 167 160 149 147 140
240 262 253 258 257 259 250 242 231 239 236 232 210 210 228 242 240 232 227 230 226 227 212 211 213 221 217 203 202 199 193 184 176 177 176 173 173 170 163 153 148 146 141
239 257 269 275 266 263 260 257 234 234 231 239 225 182 196 223 174 222 227 231 236 215 193 205 222 236 209 205 205 196 194 184 172 168 172 167 168 161 155 149 145 143 143
229 286 269 269 268 259 256 246 235 231 229 231 233 226 239 249 176 201 220 226 210 211 219 212 224 231 220 200 194 194 189 179 167 157 161 159 148 143 139 138 140 141 150
244 261 264 262 254 242 245 243 240 236 229 232 226 228 229 248 246 253 171 186 214 228 215 216 221 219 217 193 189 178 165 122 152 158 153 140 135 138 136 144 145 149 156
243 243 246 243 236 242 239 244 235 230 230 230 235 226 228 221 251 83 239 179 136 128 120 208 192 198 193 174 167 164 165 162 160 158 155 149 148 157 140 152 148 154 151
218 232 223 206 227 240 243 242 223 222 233 241 228 227 235 244 257 175 203 142 125 146 101 104 98 156 183 170 159 157 159 158 155 154 153 146 144 145 141 154 153 147 145
165 157 168 228 239 239 241 225 221 238 243 266 273 254 231 237 227 162 148 147 127 105 82 87 119 129 157 155 158 157 157 157 154 149 144 146 142 135 150 149 146 144 149
140 147 136 206 279 255 228 233 226 216 190 8 21 32 38 2 339 210 191 174 163 136 103 78 93 138 149 147 159 152 151 154 146 143 145 139 130 142 146 146 148 149 155
137 128 148 155 190 71 152 122 167 136 118 90 62 52 48 84 76 115 196 164 172 133 117 108 118 142 142 139 141 142 141 140 141 142 137 135 139 148 149 147 144 158 183
123 162 153 138 137 97 65 90 143 167 177 72 27 43 89 113 93 105 122 136 128 119 107 91 111 136 133 129 129 128 133 129 132 133 135 138 145 154 157 151 162 182 182
166 170 165 160 119 88 72 131 166 178 192 254 57 60 73 138 122 121 123 117 118 118 116 109 107 109 117 119 117 117 123 129 133 132 134 139 149 155 161 168 175 180 180
169 205 182 130 96 78 63 88 174 131 172 198 184 180 102 113 125 127 128 125 125 122 123 121 95 97 105 111 109 118 121 118 128 137 140 151 156 162 165 170 174 177 181
157 155 118 103 110 97 82 84 110 165 115 142 134 122 121 136 139 136 130 134 133 123 117 109 107 102 105 111 114 118 117 133 131 140 148 153 160 161 164 164 167 165 149
131 134 109 119 122 111 90 62 60 106 123 119 117 99 124 132 141 136 128 124 131 122 127 120 114 113 118 125 124 128 125 129 133 145 143 145 152 152 150 156 146 141 142
130 127 132 124 114 108 104 74 73 108 120 114 115 107 121 120 127 132 132 134 137 131 123 125 127 130 131 123 133 137 136 137 125 150 135 133 139 136 145 148 144 144 146
150 147 140 129 113 115 123 87 81 112 122 121 116 118 115 123 130 127 126 131 136 132 136 136 132 139 134 144 146 147 146 141 141 151 134 127 156 143 156 152 149 155 166
163 151 152 138 130 119 125 98 83 119 119 124 121 125 127 132 139 130 137 128 133 139 140 136 142 150 151 152 155 150 144 136 140 151 143 120 167 148 160 162 164 173 183
162 162 158 142 137 129 127 106 115 122 122 121 122 127 128 134 134 137 140 134 131 141 154 151 153 152 154 155 154 148 139 134 137 155 173 145 161 153 176 181 188 186 171
142 158 150 134 135 127 130 103 134 123 116 113 119 125 134 136 143 150 145 144 134 143 151 156 156 157 163 163 156 162 155 151 155 163 191 138 162 151 164 218 214 204 174